Tracking 19794 objects as of 23-Jul-2019
HD Live streaming from Space Station
objects crossing your sky now

IUE

Track IUE now!
IUE is classified as:


NORAD ID: 10637
Int'l Code: 1978-012A
Perigee: 29,025.9 km
Apogee: 42,677.8 km
Inclination: 42.0 °
Period: 1,439.1 minutes
Semi major axis: 42222 km
RCS: 5.9851 m2 (large)
Launch date: January 26, 1978
Source: United States (US)
Launch site: AIR FORCE EASTERN TEST RANGE (AFETR)

The International Ultraviolet Explorer (IUE, formerly SAS-D) satellite was a spaceborne ultraviolet astronomical observatory for use as an international facility. IUE was shut down at 18:42 UT, 30 September 1996.
aabbcc
Your satellite tracking list
Your tracking list is empty




NASA's NSSDC Master Catalog

Two Line Element Set (TLE):
1 10637U 78012A   19202.41299281 +.00000000 +00000-0 +00000-0 0  9995
2 10637 042.0288 325.3625 1616652 224.0170 116.4749 01.00064792103827
Source of the keplerian elements: AFSPC